(431514) = 2007 TA187

Discovered at Socorro on 2007-10-13 by LINEAR.

Orbit

Orbit type: Main Belt

Note: WebGL enabled browser required.

epoch2022-01-21.0
epoch JD2459600.5
perihelion date2019-09-01.70132
perihelion JD2458728.20132
argument of perihelion (°)44.23699
ascending node (°)30.38450
inclination (°)27.85062
eccentricity0.2008840
perihelion distance (AU)2.5360419
Tisserand w.r.t. Jupiter3.0
ΔV w.r.t. Earth (km/sec)13.1
semimajor axis (AU)3.1735593
mean anomaly (°)152.07196
mean daily motion (°/day)0.17433470
aphelion distance (AU)3.811
period (years)5.65
P-vector [x]0.30606672
P-vector [y]0.69103609
P-vector [z]0.65482233
Q-vector [x]-0.92221929
Q-vector [y]0.04448948
Q-vector [z]0.38409929
absolute magnitude15.87
phase slope0.15
uncertainty0
referenceMPO 699631
observations used162
oppositions7
arc length (days)4962
first opposition used2007
last opposition used2021
residual rms (arc-secs)0.92
perturbers coarse indicatorM-v
perturbers precise indicator003Ek
first observation date used2007-10-12.0
last observation date used2021-05-13.0
computer namePan
Minimum Orbit Intersection Distances (in AU)
for orbit epoch: 2459200.5, reference: E2021-B25
Mercury2.24339
Venus1.86173
Earth1.60439
Mars1.14631
Jupiter1.83192
Saturn6.2382
Uranus14.9279
Neptune26.8898

Observations

163 total observations over interval: 2007 10 12.22866 – 2021 05 13.350488
These data are available for download (format description).

Date (UT) J2000 RA J2000 Dec Magn Location Ref
2007 10 12.22866 01 44 01.46 +04 07 25.7 19.5 V 703 – Catalina Sky Survey MPS 223653
2007 10 12.23619 01 44 00.92 +04 07 28.2 19.2 V 703 – Catalina Sky Survey MPS 223653
2007 10 12.24369 01 44 00.31 +04 07 29.7 19.7 V 703 – Catalina Sky Survey MPS 223653
2007 10 12.25116 01 43 59.77 +04 07 30.4 19.8 V 703 – Catalina Sky Survey MPS 223653
2007 10 13.26064 01 42 50.88 +04 11 19.8 18.9   704 – Lincoln Laboratory ETS, New Mexico MPS 222631
2007 10 13.28282 01 42 49.30 +04 11 25.4 19.6   704 – Lincoln Laboratory ETS, New Mexico MPS 222631
2007 10 13.29391 01 42 48.51 +04 11 28.7 19.4   704 – Lincoln Laboratory ETS, New Mexico MPS 222631
2007 10 19.26759 01 35 51.54 +04 34 58.1 19.3   704 – Lincoln Laboratory ETS, New Mexico MPS 222631
2007 10 19.27824 01 35 50.75 +04 35 01.5 19.0   704 – Lincoln Laboratory ETS, New Mexico MPS 222631
2007 10 19.28890 01 35 49.95 +04 35 03.8 19.2   704 – Lincoln Laboratory ETS, New Mexico MPS 222631
2007 10 30.14484 01 23 13.23 +05 22 32.3 20.1 V 691 – Steward Observatory, Kitt Peak-Spacewatch MPS 225048
2007 10 30.15910 01 23 12.22 +05 22 36.7 20.2 V 691 – Steward Observatory, Kitt Peak-Spacewatch MPS 225048
2007 10 30.16991 01 23 11.48 +05 22 39.7 19.6 V 691 – Steward Observatory, Kitt Peak-Spacewatch MPS 225048
2007 10 30.26861 01 23 04.66 +05 23 07.8 19.3 V 703 – Catalina Sky Survey MPS 225048
2007 10 30.27510 01 23 04.20 +05 23 09.9 19.2 V 703 – Catalina Sky Survey MPS 225048
2007 10 30.28160 01 23 03.76 +05 23 12.3 19.9 V 703 – Catalina Sky Survey MPS 225048
2007 10 30.28809 01 23 03.30 +05 23 13.4 19.6 V 703 – Catalina Sky Survey MPS 225048
2007 11 03.09678 01 18 52.03 +05 41 33.3 19.9 V 691 – Steward Observatory, Kitt Peak-Spacewatch MPS 225048
2007 11 03.10761 01 18 51.33 +05 41 36.6 19.8 V 691 – Steward Observatory, Kitt Peak-Spacewatch MPS 225048
2007 11 03.11844 01 18 50.62 +05 41 39.7 19.8 V 691 – Steward Observatory, Kitt Peak-Spacewatch MPS 225048
2007 11 05.19865 01 16 38.39 +05 52 05.1 19.6   704 – Lincoln Laboratory ETS, New Mexico MPS 225048
2007 11 05.21076 01 16 37.61 +05 52 08.5 19.8   704 – Lincoln Laboratory ETS, New Mexico MPS 225048
2007 11 05.22279 01 16 36.79 +05 52 12.0 19.5   704 – Lincoln Laboratory ETS, New Mexico MPS 225048
2007 11 05.24133 01 16 35.68 +05 52 17.2 19.9 V G96 – Mt. Lemmon Survey MPS 225048
2007 11 05.24685 01 16 35.31 +05 52 20.3 20.2   704 – Lincoln Laboratory ETS, New Mexico MPS 225048
2007 11 05.24693 01 16 35.29 +05 52 19.1 19.3 V G96 – Mt. Lemmon Survey MPS 225048
2007 11 05.25253 01 16 34.96 +05 52 20.6 19.8 V G96 – Mt. Lemmon Survey MPS 225048
2007 11 09.11045 01 12 42.51 +06 12 26.9 19.9 V 691 – Steward Observatory, Kitt Peak-Spacewatch MPS 226992
2007 11 09.12380 01 12 41.70 +06 12 31.7 19.7 V 691 – Steward Observatory, Kitt Peak-Spacewatch MPS 226992
2007 11 09.13715 01 12 40.91 +06 12 35.5 19.8 V 691 – Steward Observatory, Kitt Peak-Spacewatch MPS 226992
2007 11 13.09313 01 09 01.66 +06 34 18.0 19.7 V 691 – Steward Observatory, Kitt Peak-Spacewatch MPS 226992
2007 11 13.11167 01 09 00.62 +06 34 23.7 19.6 V 691 – Steward Observatory, Kitt Peak-Spacewatch MPS 226992
2007 11 13.13020 01 08 59.65 +06 34 30.6 20.1 V 691 – Steward Observatory, Kitt Peak-Spacewatch MPS 226992
2007 11 15.08988 01 07 19.21 +06 45 40.9   691 – Steward Observatory, Kitt Peak-Spacewatch MPS 228336
2007 11 15.10326 01 07 18.52 +06 45 45.9   691 – Steward Observatory, Kitt Peak-Spacewatch MPS 228336
2007 11 15.11666 01 07 17.86 +06 45 50.4   691 – Steward Observatory, Kitt Peak-Spacewatch MPS 228336
2007 11 15.20557 01 07 13.34 +06 46 22.8 20.2   704 – Lincoln Laboratory ETS, New Mexico MPS 228336
2007 11 15.21813 01 07 12.68 +06 46 26.1 19.8   704 – Lincoln Laboratory ETS, New Mexico MPS 228336
2007 11 15.23058 01 07 12.00 +06 46 29.5 19.9   704 – Lincoln Laboratory ETS, New Mexico MPS 228336
2007 11 15.24302 01 07 11.39 +06 46 34.7 20.3   704 – Lincoln Laboratory ETS, New Mexico MPS 228336
2009 02 28.31004 10 51 07.63 +46 56 39.5 20.3 V 703 – Catalina Sky Survey MPS 444912
2009 02 28.31832 10 51 06.94 +46 56 37.0 20.2 V 703 – Catalina Sky Survey MPS 444912
2009 02 28.32714 10 51 06.15 +46 56 37.8 19.9 V 703 – Catalina Sky Survey MPS 444912
2009 02 28.33510 10 51 05.58 +46 56 37.9 20.4 V 703 – Catalina Sky Survey MPS 444912
2009 03 21.19362 10 27 25.92 +45 02 04.5 20.3 V 703 – Catalina Sky Survey MPS 282606
2009 03 21.19911 10 27 25.63 +45 02 02.1 20.7 V 703 – Catalina Sky Survey MPS 282606
2009 03 21.20452 10 27 25.48 +45 01 59.0 21.4 V 703 – Catalina Sky Survey MPS 282606
2009 03 21.21014 10 27 24.91 +45 01 56.0 20.3 V 703 – Catalina Sky Survey MPS 282606
2013 11 04.37515 03 48 49.18 +40 13 04.6 19.2 V G96 – Mt. Lemmon Survey MPS 490990
2013 11 04.37727 03 48 49.01 +40 13 06.0 19.2 V G96 – Mt. Lemmon Survey MPS 490990
2013 11 04.37987 03 48 48.84 +40 13 07.9 19.4 V G96 – Mt. Lemmon Survey MPS 490990
2013 11 04.38257 03 48 48.62 +40 13 09.8 19.2 V G96 – Mt. Lemmon Survey MPS 490990
2013 12 07.28295 03 02 42.388 +43 37 02.57 19.4 i F51 – Pan-STARRS 1, Haleakala MPS 490990
2013 12 07.29564 03 02 41.433 +43 37 03.81 19.5 i F51 – Pan-STARRS 1, Haleakala MPS 490990
2013 12 07.30868 03 02 40.421 +43 37 05.19 19.4 r F51 – Pan-STARRS 1, Haleakala MPS 490990
2013 12 07.32044 03 02 39.513 +43 37 06.47 19.6 r F51 – Pan-STARRS 1, Haleakala MPS 490990
2014 01 22.10505 02 47 09.64 +43 12 43.1 20.3 V G96 – Mt. Lemmon Survey MPS 496995
2014 01 22.10963 02 47 09.74 +43 12 43.1 20.4 V G96 – Mt. Lemmon Survey MPS 496995
2014 01 22.11422 02 47 09.85 +43 12 42.8 20.6 V G96 – Mt. Lemmon Survey MPS 496995
2014 01 22.11879 02 47 10.05 +43 12 42.7 20.1 V G96 – Mt. Lemmon Survey MPS 496995
2015 01 15.54808 12 59 03.491 +19 43 17.03 21.2 r F51 – Pan-STARRS 1, Haleakala MPS 561182
2015 01 15.55929 12 59 03.650 +19 43 17.96 20.9 r F51 – Pan-STARRS 1, Haleakala MPS 561182
2015 01 15.58182 12 59 03.991 +19 43 19.88 20.9 r F51 – Pan-STARRS 1, Haleakala MPS 561182
2015 03 15.52149 12 32 11.415 +22 17 48.30 20.3 r F51 – Pan-STARRS 1, Haleakala MPS 587134
2015 03 15.53307 12 32 10.675 +22 17 48.72 20.2 r F51 – Pan-STARRS 1, Haleakala MPS 587134
2015 03 15.54468 12 32 09.949 +22 17 49.23 20.2 r F51 – Pan-STARRS 1, Haleakala MPS 587134
2015 03 15.55631 12 32 09.216 +22 17 49.75 20.2 r F51 – Pan-STARRS 1, Haleakala MPS 587134
2018 08 08.55034 00 53 27.833 -23 00 41.76 20.9 w F51 – Pan-STARRS 1, Haleakala MPS 909725
2018 08 08.56152 00 53 27.686 -23 00 44.08 20.8 w F51 – Pan-STARRS 1, Haleakala MPS 909725
2018 08 08.57270 00 53 27.537 -23 00 46.32 20.7 w F51 – Pan-STARRS 1, Haleakala MPS 909725
2018 08 08.58382 00 53 27.389 -23 00 48.66 20.8 w F51 – Pan-STARRS 1, Haleakala MPS 909725
2018 09 18.34757 00 25 31.40 -24 51 00.7 20.3 G G96 – Mt. Lemmon Survey MPS 921784
2018 09 18.35292 00 25 31.03 -24 51 00.7 20.2 G G96 – Mt. Lemmon Survey MPS 921784
2018 09 18.36035 00 25 30.57 -24 51 01.2 20.6 G G96 – Mt. Lemmon Survey MPS 921784
2018 09 18.36569 00 25 30.22 -24 51 01.2 20.1 G G96 – Mt. Lemmon Survey MPS 921784
2018 10 10.34360 00 01 45.608 -23 59 20.55 20.3 w F52 – Pan-STARRS 2, Haleakala MPS 927237
2018 10 10.35537 00 01 44.875 -23 59 17.03 20.5 w F52 – Pan-STARRS 2, Haleakala MPS 927237
2018 10 10.36714 00 01 44.134 -23 59 13.37 20.4 w F52 – Pan-STARRS 2, Haleakala MPS 927237
2018 10 10.37889 00 01 43.408 -23 59 09.93 20.4 w F52 – Pan-STARRS 2, Haleakala MPS 927237
2019 10 07.49541 07 24 45.25 +46 05 31.8 20.9 G G96 – Mt. Lemmon Survey MPS 1056328
2019 10 07.49731 07 24 45.47 +46 05 33.4 21.4 G G96 – Mt. Lemmon Survey MPS 1056328
2019 10 07.49922 07 24 45.64 +46 05 34.4 20.9 G G96 – Mt. Lemmon Survey MPS 1056328
2019 10 07.50224 07 24 45.91 +46 05 36.3 20.8 G G96 – Mt. Lemmon Survey MPS 1056328
2019 10 14.56236 07 36 25.554 +47 15 07.53 20.7 z F51 – Pan-STARRS 1, Haleakala MPS 1064626
2019 10 14.57445 07 36 26.682 +47 15 14.88 21.0 z F51 – Pan-STARRS 1, Haleakala MPS 1064626
2019 10 14.58654 07 36 27.851 +47 15 22.09 21.0 z F51 – Pan-STARRS 1, Haleakala MPS 1064626
2019 10 15.55655 07 38 00.585 +47 25 11.81 20.6 z F51 – Pan-STARRS 1, Haleakala MPS 1064626
2019 10 15.56713 07 38 01.561 +47 25 18.44 20.8 z F51 – Pan-STARRS 1, Haleakala MPS 1064626
2019 10 15.58826 07 38 03.571 +47 25 31.43 20.6 z F51 – Pan-STARRS 1, Haleakala MPS 1064626
2019 10 28.35659 07 56 49.87 +49 42 20.2 20.6 G G96 – Mt. Lemmon Survey MPS 1074654
2019 10 28.36180 07 56 50.27 +49 42 24.0   G96 – Mt. Lemmon Survey MPS 1074654
2019 10 28.37340 07 56 51.22 +49 42 32.1 20.9 G G96 – Mt. Lemmon Survey MPS 1074654
